Location: Cazavet
(43.0017°N, 1.0431°E)
Time: 22:34:57
(UTC+00:00)

Cosmos 2154 Rocket - Pass Details

Date: 18 January 2026
Orbit: 965 x 997 km, 82.9° (Epoch: 13 February)

Event Time Altitude Azimuth Distance (km) Brightness Sun altitude
Rises 05:53:56 0° 205° (SSW) 3,693 6.9 -16.0°
Reaches altitude 10° 05:56:35 10° 211° (SSW) 2,744 6.2 -15.5°
Maximum altitude 06:02:35 46° 283° (WNW) 1,306 4.2 -14.5°
Drops below altitude 10° 06:08:36 10° 356° (N) 2,740 6.2 -13.4°
Sets 06:11:15 0° 3° (N) 3,687 6.9 -12.9°
